Change the Weather History Date:

Saturday, September 27, 2014

  Actual Average Record
Temperature  
Mean Temperature 68 °F 62 °F  
Max Temperature 84 °F 75 °F 93 °F (1956)
Min Temperature 52 °F 49 °F 33 °F (1942)
Degree Days  
Heating Degree Days 0 5  
Month to date heating degree days 78 59  
Since 1 July heating degree days 84 64  
Cooling Degree Days 3 2  
Month to date cooling degree days 105 114  
Year to date cooling degree days 1154 1191  
Growing Degree Days 17 (Base 50)    
Moisture  
Dew Point 56 °F    
Average Humidity 70    
Maximum Humidity 100    
Minimum Humidity 40    
Precipitation  
Precipitation 0.00 in 0.08 in 1.68 in (1999)
Month to date precipitation 1.71 3.16  
Year to date precipitation 24.26 29.46  
Sea Level Pressure  
Sea Level Pressure 30.12 in    
Wind  
Wind Speed 4 mph (South)    
Max Wind Speed 17 mph    
Max Gust Speed 20 mph    
Visibility 6 miles    
Events Fog    
T = Trace of Precipitation, MM = Missing Value Source: NWS Daily Summary

Daily Weather History Graph

Daily Weather History Graph

Search for Another Location

Airport or City:

Trip Planner

Search our weather history database for the weather conditions in past years. The results will help you decide how hot, cold, wet, or windy it might be!

Date:

Astronomy

Sep. 27, 2014 Rise Set
Actual Time 7:12 AM CDT 7:08 PM CDT
Civil Twilight 6:45 AM CDT 7:35 PM CDT
Nautical Twilight 6:13 AM CDT 8:06 PM CDT
Astronomical Twilight 5:41 AM CDT 8:38 PM CDT
Moon 10:27 AM CDT (9/27) 9:09 PM CDT (9/27)
Length of Visible Light 12h 50m
Length of Day
11h 56m
Waxing Crescent, 11% of the Moon is Illuminated
Sep 27
Waxing Crescent
Oct 1
First Quarter
Oct 8
Full
Oct 15
Last Quarter
Oct 23
New

Hourly Weather History & Observations

Time (CDT) Temp. Heat Index Dew Point Humidity Pressure Visibility Wind Dir Wind Speed Gust Speed Precip Events Conditions
12:53 AM 61.0 °F - 59.0 °F 93% 30.11 in 10.0 mi Calm Calm - N/A   Clear
1:53 AM 59.0 °F - 55.9 °F 90% 30.12 in 10.0 mi Calm Calm - N/A   Clear
2:53 AM 57.9 °F - 55.0 °F 90% 30.11 in 9.0 mi Calm Calm - N/A   Clear
3:36 AM 57.0 °F - 55.9 °F 96% 30.13 in 2.0 mi Calm Calm - N/A   Clear
3:45 AM 59.0 °F - 57.9 °F 96% 30.13 in 9.0 mi Calm Calm - N/A   Partly Cloudy
3:53 AM 59.0 °F - 57.0 °F 93% 30.12 in 10.0 mi Calm Calm - N/A   Scattered Clouds
4:53 AM 55.9 °F - 55.0 °F 97% 30.11 in 8.0 mi Calm Calm - N/A   Partly Cloudy
5:53 AM 55.9 °F - 55.0 °F 97% 30.12 in 8.0 mi Calm Calm - N/A   Partly Cloudy
6:30 AM 57.0 °F - 55.0 °F 93% 30.14 in 1.0 mi Calm Calm - N/A   Mist
6:33 AM 57.0 °F - 55.9 °F 96% 30.14 in 0.5 mi Calm Calm - N/A Fog Fog
6:44 AM 54.0 °F - 54.0 °F 100% 30.14 in 0.2 mi Calm Calm - N/A Fog Fog
6:48 AM 53.6 °F - 53.6 °F 100% 30.14 in 1.0 mi Calm Calm - N/A   Mist
6:50 AM 53.6 °F - 53.6 °F 100% 30.14 in 2.5 mi Calm Calm - N/A   Partly Cloudy
6:53 AM 54.0 °F - 54.0 °F 100% 30.13 in 1.0 mi Calm Calm - N/A   Mist
7:00 AM 52.0 °F - 52.0 °F 100% 30.15 in 0.2 mi Calm Calm - N/A Fog Fog
7:06 AM 53.1 °F - 53.1 °F 100% 30.15 in 1.2 mi Calm Calm - N/A   Scattered Clouds
7:14 AM 54.0 °F - 53.1 °F 97% 30.15 in 2.0 mi Calm Calm - N/A   Partly Cloudy
7:26 AM 53.1 °F - 53.1 °F 100% 30.15 in 5.0 mi Calm Calm - N/A   Clear
7:39 AM 54.0 °F - 53.1 °F 97% 30.15 in 4.0 mi Calm Calm - N/A   Partly Cloudy
7:53 AM 55.0 °F - 54.0 °F 96% 30.15 in 6.0 mi Calm Calm - N/A   Clear
8:00 AM 55.9 °F - 55.0 °F 97% 30.15 in 2.0 mi Calm Calm - N/A   Partly Cloudy
8:07 AM 57.0 °F - 55.9 °F 96% 30.15 in 1.2 mi Calm Calm - N/A   Partly Cloudy
8:14 AM 57.9 °F - 57.0 °F 97% 30.15 in 3.0 mi Calm Calm - N/A   Partly Cloudy
8:53 AM 64.9 °F - 61.0 °F 87% 30.14 in 7.0 mi Calm Calm - N/A   Clear
9:53 AM 70.0 °F - 61.0 °F 73% 30.15 in 10.0 mi Variable 3.5 mph - N/A   Clear
10:53 AM 75.9 °F - 61.0 °F 60% 30.15 in 10.0 mi South 5.8 mph - N/A   Clear
11:53 AM 81.0 °F 81.0 °F 57.0 °F 44% 30.14 in 10.0 mi South 10.4 mph 19.6 mph N/A   Scattered Clouds
12:53 PM 81.0 °F 80.8 °F 55.9 °F 42% 30.12 in 10.0 mi South 11.5 mph 18.4 mph N/A   Partly Cloudy
1:53 PM 82.0 °F 81.7 °F 57.0 °F 42% 30.10 in 10.0 mi South 11.5 mph - N/A   Partly Cloudy
2:53 PM 82.9 °F 82.1 °F 55.9 °F 39% 30.07 in 10.0 mi South 13.8 mph - N/A   Clear
3:53 PM 82.9 °F 82.1 °F 55.9 °F 39% 30.05 in 10.0 mi SSE 13.8 mph - N/A   Clear
4:53 PM 82.0 °F 81.6 °F 55.9 °F 41% 30.05 in 10.0 mi South 11.5 mph - N/A   Partly Cloudy
5:53 PM 81.0 °F 81.0 °F 57.0 °F 44% 30.05 in 10.0 mi South 10.4 mph - N/A   Partly Cloudy
6:53 PM 73.9 °F - 59.0 °F 59% 30.06 in 10.0 mi SSE 5.8 mph - N/A   Partly Cloudy
7:53 PM 69.1 °F - 59.0 °F 70% 30.07 in 10.0 mi Calm Calm - N/A   Mostly Cloudy
8:53 PM 63.0 °F - 57.0 °F 81% 30.08 in 10.0 mi Calm Calm - N/A   Scattered Clouds
9:53 PM 62.1 °F - 57.0 °F 84% 30.09 in 10.0 mi Calm Calm - N/A   Clear
10:53 PM 60.1 °F - 57.0 °F 90% 30.09 in 10.0 mi Calm Calm - N/A   Clear
11:53 PM 57.9 °F - 55.0 °F 90% 30.09 in 10.0 mi West 3.5 mph - N/A   Clear